Theta_e
346 357 360 354 352 351 353 352 351 349 350 351 351 351 352 353 356 357 356 356 356 356 355 354 355 356 356 355 355 356 358 359 359 358 357 358 358 357 357 355 355 354 359
350 356 358 354 351 353 356 353 353 352 351 351 350 349 349 349 351 354 355 354 354 354 354 353 354 356 356 356 356 355 356 357 357 356 357 358 357 356 357 356 359 355 360
348 356 353 354 351 354 357 354 352 352 352 354 354 354 353 350 347 352 354 353 353 354 353 353 353 353 354 354 353 352 353 352 353 355 358 354 354 356 356 355 356 357 359
348 353 350 352 353 356 356 355 352 354 353 353 351 350 351 353 351 349 354 353 353 352 352 352 351 351 351 350 349 349 350 350 352 353 352 346 349 355 355 355 354 353 356
346 350 353 353 354 358 357 353 354 353 351 350 349 348 348 348 351 350 350 353 353 352 351 351 350 350 350 350 348 348 350 352 352 351 345 345 347 354 353 353 353 353 352
344 348 353 354 355 358 354 355 353 352 350 349 349 349 350 350 348 349 349 350 352 351 351 349 350 351 351 351 350 349 349 351 352 347 348 346 351 354 353 353 354 353 353
340 350 349 354 356 354 354 354 353 352 349 348 349 348 349 350 349 348 348 349 349 350 349 348 349 349 349 349 348 346 349 351 348 341 343 351 351 355 353 352 352 352 352
339 342 348 354 357 358 354 353 352 351 349 348 349 348 348 348 349 348 347 348 348 348 348 346 345 346 346 348 347 347 350 350 348 343 341 348 353 353 352 350 350 350 351
338 340 342 345 355 355 355 354 352 351 349 348 350 349 348 347 348 348 348 348 347 346 345 344 343 345 345 344 347 347 349 352 346 344 341 348 350 350 351 350 349 349 350
336 340 341 344 348 351 352 355 353 351 350 348 348 347 346 346 345 346 349 347 346 345 345 344 344 344 344 342 343 345 350 353 343 342 341 345 348 347 349 350 350 350 350
334 338 341 342 345 347 346 350 352 351 350 349 348 347 347 343 344 343 347 346 346 346 345 344 343 343 345 347 347 349 351 344 342 338 341 348 348 346 346 349 350 351 350
332 335 339 342 342 343 344 349 345 345 346 346 345 345 347 345 346 343 344 343 342 343 343 343 343 344 346 342 340 348 343 342 339 338 342 348 348 347 347 349 349 351 351
332 334 337 342 345 342 342 347 343 343 345 347 349 349 349 344 342 342 343 342 343 342 339 340 339 339 341 340 340 338 338 338 339 340 342 348 348 346 347 347 349 349 350
332 334 336 342 344 345 342 344 344 342 344 345 348 350 349 345 345 345 342 344 344 342 343 340 339 341 342 341 338 338 337 337 338 340 343 347 347 348 347 349 349 348 348
331 334 336 341 346 346 346 344 344 342 342 345 346 349 348 347 348 347 346 344 345 344 343 342 340 342 343 343 340 339 338 338 340 339 343 347 346 348 348 349 348 349 349
332 334 336 338 346 347 348 347 344 345 344 343 344 347 350 348 350 348 348 347 345 345 343 343 342 342 343 341 340 340 339 338 339 340 339 344 347 347 348 348 350 348 348
332 334 337 340 342 348 350 348 345 343 342 342 343 350 351 353 355 353 347 347 347 348 350 349 347 344 341 339 340 339 340 341 339 340 341 340 344 348 347 347 347 348 348
335 335 339 336 339 347 350 348 344 342 342 342 343 344 348 351 353 352 347 348 349 351 349 347 345 342 341 341 339 339 339 341 340 341 341 341 340 342 345 348 348 348 346
341 341 341 342 337 344 352 348 350 354 344 342 342 344 350 348 350 354 349 349 355 349 350 348 349 347 343 342 339 340 341 345 340 337 342 343 343 341 343 346 348 349 349
343 347 349 348 351 352 348 351 343 342 342 343 342 342 347 345 347 354 350 353 353 348 348 350 349 347 351 345 339 341 344 343 340 343 343 342 343 343 342 343 343 343 349
343 349 355 355 363 353 343 342 343 339 341 342 343 349 349 348 347 356 347 351 353 351 353 359 353 350 349 349 343 340 339 339 335 336 340 342 343 342 343 343 342 344 345
343 349 354 357 363 360 350 350 348 347 343 342 343 350 351 347 347 350 354 350 354 346 359 357 358 353 350 353 343 340 330 332 335 335 340 339 344 343 339 341 341 345 346
343 347 353 360 363 365 361 356 357 353 351 344 344 343 346 347 347 352 355 356 355 356 346 360 357 345 340 347 342 338 330 326 328 334 336 339 337 341 342 343 343 346 347
346 347 353 362 366 365 368 358 360 349 345 344 346 347 349 350 350 349 354 355 358 350 354 359 359 355 346 338 343 338 334 331 323 322 335 334 336 334 338 338 340 342 338
346 347 350 358 365 362 361 363 355 355 348 348 347 358 360 357 353 350 351 353 357 349 359 357 355 352 349 345 336 333 331 330 329 325 322 327 331 334 331 331 332 332 331
350 350 350 347 350 353 354 355 356 353 353 348 350 347 346 346 348 354 354 352 356 356 355 354 353 350 351 348 336 333 330 327 327 327 324 325 324 328 327 323 325 326 329
Wind_Speed
17 18 14 13 10 9 8 8 8 8 9 10 9 9 8 8 8 9 9 9 9 10 9 9 8 7 8 8 9 9 10 10 9 8 9 10 11 9 7 4 3 13 12
20 17 14 13 11 9 9 8 8 9 9 9 9 9 9 8 8 8 8 8 8 8 8 8 7 7 8 8 8 9 8 8 5 4 7 11 14 10 10 9 10 12 12
18 17 15 13 11 10 10 8 7 7 7 9 8 9 8 8 8 8 7 7 8 8 8 7 7 6 6 5 6 5 6 4 2 6 10 7 14 11 9 9 9 9 9
17 14 15 14 12 10 10 8 8 7 8 8 9 8 8 8 7 8 6 5 8 7 7 6 6 5 4 4 3 3 3 2 7 12 10 6 14 11 9 7 6 5 7
16 14 15 14 11 10 9 9 8 8 8 9 9 8 8 8 7 7 6 6 8 8 7 6 5 5 5 4 2 2 1 5 11 13 8 3 7 10 7 5 8 6 1
16 16 16 14 11 9 9 9 8 8 8 8 9 8 8 8 8 7 6 7 8 8 7 6 6 6 7 7 5 3 1 8 12 10 7 8 10 11 8 6 8 8 7
16 19 16 14 12 11 9 8 7 7 7 8 9 9 8 8 8 7 6 6 6 7 6 5 5 5 6 6 4 2 3 10 11 6 7 11 10 10 6 5 6 6 6
16 17 16 14 11 9 10 8 6 6 6 7 8 8 8 7 7 7 6 6 5 4 4 4 4 3 3 4 2 1 5 11 12 10 4 11 11 9 4 3 4 4 5
15 17 15 15 12 11 9 8 7 6 6 6 7 7 7 7 7 6 6 5 4 3 2 2 2 1 2 3 3 1 6 11 10 8 4 10 9 8 4 1 2 4 4
14 16 16 15 14 13 12 10 9 7 7 6 6 6 7 7 6 7 8 6 4 3 3 2 1 2 3 3 2 4 10 14 14 7 6 9 9 4 3 4 4 3 3
12 13 15 16 14 13 13 12 10 9 7 6 8 7 9 9 10 12 10 8 5 4 4 4 4 4 7 10 11 13 12 10 10 4 8 11 8 2 2 3 5 5 5
14 13 12 13 14 13 11 13 12 10 9 8 8 8 11 2 7 9 10 8 6 6 6 6 6 8 12 11 9 13 8 7 3 3 8 12 6 2 1 3 4 5 6
14 11 10 10 7 9 7 9 6 7 7 7 8 9 4 5 5 8 8 8 8 11 8 10 9 9 14 7 2 4 6 7 3 2 11 12 7 3 1 3 4 5 6
14 13 10 13 8 7 6 6 7 5 6 6 8 8 3 5 6 5 4 8 4 8 3 4 6 3 5 7 10 9 7 5 4 1 10 13 9 5 4 5 5 5 5
14 13 11 9 8 8 6 6 5 5 5 6 7 10 7 6 4 5 4 5 4 4 7 6 6 4 7 10 9 10 5 8 5 3 6 15 12 8 6 7 6 6 6
13 13 13 12 11 9 8 7 5 5 4 6 6 7 10 7 5 6 6 6 7 7 6 5 6 6 9 9 8 8 5 10 6 5 4 10 15 12 9 9 10 8 8
11 14 12 12 12 10 10 9 8 7 8 7 8 8 10 10 8 8 7 7 7 6 5 5 7 7 8 8 8 7 8 9 8 8 5 5 11 14 13 12 11 11 11
11 12 13 12 13 13 11 9 9 9 9 9 8 9 12 12 12 9 9 8 8 7 6 7 9 9 9 8 7 7 6 8 11 10 9 8 7 10 12 14 14 12 12
11 12 13 13 13 14 12 11 10 9 9 9 9 9 10 12 13 10 10 9 8 9 8 7 6 8 8 8 9 8 6 4 6 8 9 11 11 8 9 20 18 15 13
14 12 13 12 12 10 10 10 10 10 10 10 10 10 11 10 13 11 11 10 9 10 10 6 6 6 3 6 10 5 5 6 6 5 8 7 12 11 12 10 11 10 14
15 15 14 14 13 11 11 11 11 11 11 11 11 12 12 12 13 11 11 11 11 11 11 6 4 4 8 2 5 9 9 6 8 7 6 12 8 10 13 9 10 10 13
16 15 15 15 14 13 11 10 10 10 11 11 11 10 12 13 13 12 12 12 12 11 11 11 10 6 7 6 5 1 7 8 3 7 7 3 15 11 6 6 9 11 7
15 16 15 14 14 14 15 10 9 9 9 10 10 10 11 13 14 13 12 11 11 10 11 7 8 9 6 6 7 5 2 8 2 2 6 3 4 2 4 16 9 8 8
12 14 14 13 13 13 13 13 13 11 10 10 10 10 8 10 12 13 12 12 10 11 10 7 5 7 8 9 4 5 3 3 4 5 2 5 5 6 5 4 6 6 9
5 7 7 8 11 12 12 12 11 12 11 10 10 9 4 6 9 10 10 10 10 10 8 8 8 7 8 7 7 2 5 7 10 10 8 3 4 4 3 4 5 2 6
10 8 5 5 5 5 9 10 10 12 11 9 8 9 4 6 6 3 4 7 8 6 7 7 8 9 8 10 3 4 10 7 5 6 8 7 6 1 4 5 3 5 4
Wind_Direction
123 126 133 124 125 122 115 114 106 100 96 97 98 98 95 94 90 85 94 95 101 95 92 92 87 81 79 71 65 59 60 69 86 91 97 89 64 46 38 18 142 108 119
116 135 125 129 131 130 132 120 113 105 99 99 100 98 97 96 96 93 93 98 95 92 91 91 86 78 74 72 65 56 55 57 72 130 130 108 83 50 35 29 49 107 123
120 128 140 137 137 145 123 124 123 120 117 104 95 97 90 92 97 97 93 112 105 102 97 90 88 80 74 71 63 49 50 60 282 234 203 200 94 74 51 48 67 103 123
125 141 135 139 144 146 143 136 142 121 113 111 105 98 94 84 110 104 96 115 127 111 101 95 87 84 70 52 42 44 45 336 272 269 255 170 99 98 82 70 69 101 121
132 143 121 142 149 146 145 146 135 134 131 119 111 105 100 96 96 101 107 80 137 110 93 82 78 72 49 11 5 23 167 260 276 278 22 24 77 100 90 86 144 122 169
143 131 137 142 151 144 153 134 144 142 132 119 115 111 104 100 99 96 105 102 100 102 89 72 64 62 45 46 69 61 22 275 290 259 63 95 65 100 85 72 72 78 92
148 120 139 145 157 155 153 153 152 142 131 123 118 114 111 108 106 109 112 110 107 112 110 93 70 53 48 36 40 31 276 287 288 16 96 97 89 88 84 86 94 102 115
141 139 136 148 161 155 153 156 156 145 131 126 115 113 112 112 109 110 115 120 121 121 108 80 73 58 37 36 22 331 283 297 307 314 30 83 98 93 95 101 116 132 135
144 140 152 157 160 161 160 163 165 160 147 137 128 129 125 120 117 120 119 117 122 125 123 112 92 67 359 23 43 330 278 279 288 295 291 87 90 100 113 130 141 150 160
157 145 154 153 164 174 161 173 176 172 165 152 146 150 153 146 147 152 156 132 138 153 166 174 194 225 249 249 241 269 261 272 261 246 54 89 96 98 150 177 182 167 181
162 159 159 157 164 185 160 161 182 179 173 168 173 190 197 181 173 165 91 128 155 176 190 202 219 237 248 238 219 223 237 249 210 25 81 106 107 116 207 183 189 174 181
170 170 169 161 166 190 156 146 192 174 187 191 189 181 234 114 59 92 119 154 180 200 209 212 228 240 241 236 200 227 233 241 310 39 94 117 121 140 231 187 179 190 189
173 167 184 156 173 179 172 154 189 173 191 193 206 196 224 169 161 207 153 173 182 198 201 195 195 226 226 308 286 285 314 324 304 120 117 126 138 164 181 197 197 190 192
172 170 188 151 184 236 179 191 188 194 188 204 193 202 193 229 173 257 224 167 210 173 189 221 211 247 333 289 281 300 295 268 297 56 129 137 150 170 180 176 185 201 208
172 173 183 168 191 195 251 184 235 206 189 213 186 188 236 228 198 205 238 258 242 242 169 229 237 222 226 226 241 275 298 296 319 273 126 149 158 179 195 195 195 189 195
173 173 187 195 175 202 221 247 208 242 216 229 229 205 209 236 214 240 227 235 236 236 252 258 241 235 210 238 237 232 234 285 266 246 252 158 165 176 195 211 201 203 201
179 170 195 197 182 203 211 217 235 220 220 223 228 215 213 215 236 244 239 236 243 243 259 282 294 277 264 270 269 256 238 215 259 278 246 246 168 179 187 206 219 216 212
192 175 184 203 190 192 216 218 227 229 233 228 228 224 213 223 230 221 243 249 244 244 232 231 236 244 251 255 250 263 272 234 224 222 230 245 235 180 189 198 205 220 221
192 173 182 204 215 194 206 224 230 245 234 246 236 232 220 220 230 229 250 248 242 256 254 247 246 262 267 260 268 243 351 329 295 255 236 217 229 248 197 186 193 203 216
181 193 187 195 215 202 208 216 237 230 235 239 246 244 236 228 227 230 237 253 259 254 252 219 241 276 215 302 279 321 310 317 324 303 308 273 234 233 220 192 187 200 210
194 189 200 199 195 209 203 218 218 233 229 235 238 241 244 231 236 222 240 244 228 251 266 262 216 288 293 261 302 263 268 308 306 299 279 228 242 229 224 216 205 203 191
195 201 201 212 206 202 214 218 232 226 235 237 234 234 228 244 245 245 235 242 249 255 229 237 253 239 258 257 244 316 265 265 281 278 278 6 321 324 241 269 218 214 243
209 206 212 212 222 216 226 223 232 252 263 256 247 243 232 230 241 247 253 257 256 265 264 231 232 235 230 244 212 244 193 241 1 274 289 256 172 285 342 277 266 273 211
222 215 216 215 217 226 226 239 253 242 245 248 246 258 255 235 232 242 254 258 253 262 278 290 248 231 237 247 248 240 284 282 245 290 245 281 318 313 314 318 310 335 7
356 335 317 234 215 226 246 232 254 246 257 260 257 260 269 317 299 283 267 263 254 255 274 269 262 248 246 237 223 207 228 241 236 239 269 268 256 256 43 26 45 58 57
15 351 335 322 285 256 252 245 246 273 297 295 318 332 299 289 275 268 220 279 280 295 293 295 289 278 269 262 230 209 253 227 203 227 251 249 241 203 92 54 324 78 71